USA 119

导读 | 豆包AI

USA 119是美国于1996年5月12日发射的军事卫星,隶属于美国国家 Reconnaissance Office(NRO),一般认为属于“锁眼”KH-12系列光学侦察卫星,用于高分辨率成像侦察任务。它部署在近地轨道,具备较强的空间分辨率,可对全球目标进行光学成像侦察,为美国军方提供战略情报支持,是美国空间侦察体系的重要组成部分,至今仍在轨执行机密任务,具体细节美国并未公开披露。

Basic Information
目录编号:
23893
目录名称:
USA 119
国际标识:
1996-029A
轨道中心:
EARTH
卫星名称:
USA 119
卫星全名:
--
卫星状态:
在轨 (已飞行10946 天)
发射日期:
1996-05-12 UTC
国别 :
美国 (US)
星等 :
--
Orbit Information
数据来源 国际轨道数据 AOE轨道数据
星历时间 2026-05-01T06:36:32+0800
10小时前
查看轨道信息
2026-05-01T04:00:00+0800
13小时前
查看轨道信息
半长轴 7464.668km 7464.7km
偏心率 0.0848857 0.0848723
轨道倾角 63.321° 63.319°
近地点辐角 48.468° 48.486°
升交点赤经 315.731° 316.016°
平近点角 318.606° 151.770°
近地点 452.887km 453.016km
远地点 1720.175km 1720.11km
周期 106.973分钟 106.974分钟
每日圈数 13.461301 13.461214
Detailed Information
使用方式:
暂无
2D Orbit Map
3D Orbit Map
Orbit Altitude Analysis Chart
Orbit Inclination Analysis Chart
Orbit Comprehensive Analysis Chart
View Comprehensive Chart